| time (UTC) | temp F | wind direction | speed MPH | gust MPH | rain 1hr in | rain 24hr in | rain mn in | humidity % | barometer mb |
| 20260903030520 | 74 | 183 | 0.0 | 0.0 | 0.00 | 0.08 | 0.08 | 91 | 1009.6 |
| 20260903030109 | 74 | 183 | 0.0 | 0.0 | 0.00 | 0.08 | 0.08 | 91 | 1009.6 |
| 20260903025534 | 74 | 183 | 0.0 | 0.0 | 0.00 | 0.08 | 0.08 | 91 | 1009.5 |
| 20260903025002 | 74 | 183 | 0.0 | 0.0 | 0.00 | 0.08 | 0.08 | 90 | 1009.5 |
| 20260903024522 | 75 | 183 | 0.0 | 0.0 | 0.00 | 0.08 | 0.08 | 90 | 1009.6 |
| 20260903024011 | 75 | 183 | 0.0 | 0.0 | 0.00 | 0.08 | 0.08 | 90 | 1009.6 |
| 20260903023542 | 75 | 183 | 0.0 | 0.0 | 0.00 | 0.08 | 0.08 | 90 | 1009.5 |
| 20260903023058 | 75 | 183 | 0.0 | 0.0 | 0.00 | 0.08 | 0.08 | 90 | 1009.5 |
| 20260903022513 | 76 | 183 | 0.0 | 0.0 | 0.00 | 0.08 | 0.08 | 90 | 1009.5 |
| 20260903022054 | 76 | 183 | 0.0 | 0.0 | 0.00 | 0.08 | 0.08 | 90 | 1009.4 |
| 20260903021504 | 76 | 183 | 0.0 | 0.0 | 0.00 | 0.08 | 0.08 | 89 | 1009.5 |
| 20260903021022 | 76 | 183 | 0.0 | 0.0 | 0.00 | 0.08 | 0.08 | 88 | 1009.5 |
| 20260903020607 | 76 | 183 | 0.0 | 0.0 | 0.00 | 0.08 | 0.08 | 88 | 1009.4 |
| 20260903020045 | 76 | 183 | 0.0 | 0.0 | 0.00 | 0.08 | 0.08 | 88 | 1009.4 |
| 20260903015505 | 77 | 183 | 0.0 | 0.0 | 0.00 | 0.08 | 0.08 | 89 | 1009.4 |
| 20260903015033 | 77 | 183 | 0.0 | 0.0 | 0.00 | 0.08 | 0.08 | 89 | 1009.4 |
| 20260903014553 | 77 | 183 | 0.0 | 0.0 | 0.00 | 0.08 | 0.08 | 87 | 1009.4 |
| 20260903014004 | 77 | 183 | 0.0 | 0.0 | 0.00 | 0.08 | 0.08 | 87 | 1009.3 |
| 20260903013530 | 78 | 183 | 0.0 | 0.0 | 0.00 | 0.08 | 0.08 | 86 | 1009.3 |
| 20260903013019 | 78 | 183 | 0.0 | 0.0 | 0.00 | 0.08 | 0.08 | 86 | 1009.2 |
| 20260903012543 | 78 | 183 | 0.0 | 0.0 | 0.00 | 0.08 | 0.08 | 86 | 1009.2 |
| 20260903012012 | 78 | 183 | 0.0 | 0.0 | 0.00 | 0.08 | 0.08 | 85 | 1009.1 |
| 20260903011534 | 79 | 183 | 0.0 | 0.0 | 0.00 | 0.08 | 0.08 | 83 | 1009.1 |
| 20260903011010 | 79 | 183 | 0.0 | 0.0 | 0.00 | 0.08 | 0.08 | 81 | 1009.1 |
| 20260903010539 | 80 | 183 | 0.0 | 0.0 | 0.00 | 0.08 | 0.08 | 80 | 1008.9 |
| 20260903010100 | 80 | 183 | 0.0 | 0.0 | 0.00 | 0.08 | 0.08 | 81 | 1008.8 |
| 20260903005510 | 80 | 183 | 0.0 | 0.0 | 0.00 | 0.08 | 0.08 | 79 | 1008.8 |
| 20260903005032 | 81 | 183 | 0.0 | 0.0 | 0.00 | 0.08 | 0.08 | 77 | 1008.8 |
| 20260903004550 | 82 | 183 | 0.0 | 0.0 | 0.00 | 0.08 | 0.08 | 79 | 1008.8 |
| 20260903004112 | 82 | 183 | 0.0 | 0.0 | 0.00 | 0.08 | 0.08 | 73 | 1008.8 |
| 20260903003520 | 83 | 183 | 0.0 | 0.0 | 0.00 | 0.08 | 0.08 | 74 | 1008.9 |
| 20260903003055 | 83 | 183 | 0.0 | 0.0 | 0.00 | 0.08 | 0.08 | 70 | 1009.0 |
| 20260903002523 | 84 | 183 | 0.0 | 0.0 | 0.00 | 0.08 | 0.08 | 73 | 1008.9 |
| 20260903002058 | 84 | 183 | 0.0 | 0.0 | 0.00 | 0.08 | 0.08 | 68 | 1008.9 |
| 20260903001509 | 85 | 183 | 0.0 | 1.0 | 0.00 | 0.08 | 0.08 | 68 | 1008.9 |
| 20260903001029 | 85 | 183 | 0.0 | 1.0 | 0.00 | 0.08 | 0.08 | 66 | 1008.9 |
| 20260903000549 | 85 | 183 | 0.0 | 2.0 | 0.00 | 0.08 | 0.08 | 66 | 1008.9 |
| 20260903000111 | 85 | 183 | 0.0 | 2.0 | 0.00 | 0.08 | 0.08 | 64 | 1008.9 |
| 20260902235522 | 86 | 183 | 0.0 | 2.0 | 0.00 | 0.08 | 0.08 | 64 | 1008.9 |
| 20260902235039 | 86 | 183 | 0.0 | 3.0 | 0.00 | 0.08 | 0.08 | 64 | 1008.9 |
| 20260902234602 | 86 | 180 | 0.0 | 3.0 | 0.00 | 0.08 | 0.08 | 63 | 1009.0 |
| 20260902234024 | 87 | 179 | 0.0 | 3.0 | 0.00 | 0.08 | 0.08 | 63 | 1009.0 |
| 20260902233548 | 87 | 179 | 0.0 | 3.0 | 0.00 | 0.08 | 0.08 | 63 | 1009.0 |
| 20260902233017 | 88 | 203 | 0.0 | 2.0 | 0.00 | 0.08 | 0.08 | 62 | 1009.0 |
| 20260902232543 | 88 | 203 | 0.0 | 2.0 | 0.00 | 0.08 | 0.08 | 62 | 1009.0 |
| 20260902232010 | 88 | 202 | 0.0 | 3.0 | 0.00 | 0.08 | 0.08 | 61 | 1009.0 |
| 20260902231551 | 88 | 202 | 1.0 | 3.0 | 0.00 | 0.08 | 0.08 | 60 | 1009.0 |
| 20260902231017 | 89 | 212 | 0.0 | 1.0 | 0.00 | 0.08 | 0.08 | 60 | 1009.1 |
| 20260902230550 | 89 | 233 | 0.0 | 2.0 | 0.00 | 0.08 | 0.08 | 59 | 1009.0 |
| 20260902230014 | 89 | 233 | 0.0 | 3.0 | 0.00 | 0.08 | 0.08 | 60 | 1009.1 |
| 20260902225602 | 89 | 233 | 0.0 | 3.0 | 0.00 | 0.08 | 0.08 | 60 | 1009.1 |
| 20260902225037 | 89 | 232 | 0.0 | 3.0 | 0.00 | 0.08 | 0.08 | 63 | 1009.1 |
| 20260902224604 | 88 | 223 | 0.0 | 3.0 | 0.00 | 0.08 | 0.08 | 60 | 1009.1 |
| 20260902224037 | 88 | 221 | 0.0 | 4.0 | 0.00 | 0.08 | 0.08 | 63 | 1009.0 |
| 20260902223505 | 88 | 309 | 1.0 | 4.0 | 0.00 | 0.08 | 0.08 | 62 | 1009.1 |
| 20260902223035 | 88 | 188 | 0.0 | 4.0 | 0.00 | 0.08 | 0.08 | 62 | 1009.1 |
| 20260902222601 | 88 | 199 | 0.0 | 2.0 | 0.00 | 0.08 | 0.08 | 62 | 1009.2 |
| 20260902222025 | 88 | 290 | 0.0 | 3.0 | 0.00 | 0.08 | 0.08 | 61 | 1009.1 |
| 20260902221612 | 88 | 308 | 1.0 | 3.0 | 0.00 | 0.08 | 0.08 | 65 | 1009.1 |
| 20260902221032 | 88 | 332 | 0.0 | 4.0 | 0.00 | 0.08 | 0.08 | 61 | 1009.1 |
| 20260902220551 | 87 | 169 | 0.0 | 6.0 | 0.00 | 0.08 | 0.08 | 63 | 1009.1 |
| 20260902220028 | 88 | 161 | 2.0 | 6.0 | 0.00 | 0.08 | 0.08 | 62 | 1009.1 |
| 20260902215555 | 88 | 169 | 1.0 | 5.0 | 0.00 | 0.08 | 0.08 | 61 | 1009.2 |
| 20260902215038 | 88 | 204 | 1.0 | 3.0 | 0.00 | 0.08 | 0.08 | 63 | 1009.3 |
| 20260902214523 | 88 | 309 | 0.0 | 4.0 | 0.00 | 0.08 | 0.08 | 63 | 1009.3 |
| 20260902214050 | 88 | 188 | 1.0 | 4.0 | 0.00 | 0.08 | 0.08 | 61 | 1009.3 |
| 20260902213507 | 88 | 182 | 1.0 | 4.0 | 0.00 | 0.08 | 0.08 | 60 | 1009.3 |
| 20260902213036 | 88 | 288 | 2.0 | 4.0 | 0.00 | 0.08 | 0.08 | 60 | 1009.3 |
| 20260902212513 | 88 | 173 | 1.0 | 4.0 | 0.00 | 0.08 | 0.08 | 60 | 1009.4 |
| 20260902212101 | 88 | 178 | 1.0 | 4.0 | 0.00 | 0.08 | 0.08 | 61 | 1009.4 |
| 20260902211553 | 88 | 161 | 0.0 | 3.0 | 0.00 | 0.08 | 0.08 | 64 | 1009.4 |
| 20260902211106 | 87 | 158 | 1.0 | 3.0 | 0.00 | 0.08 | 0.08 | 62 | 1009.5 |
| 20260902210529 | 87 | 153 | 0.0 | 6.0 | 0.00 | 0.08 | 0.08 | 62 | 1009.5 |
| 20260902210009 | 88 | 148 | 2.0 | 6.0 | 0.00 | 0.08 | 0.08 | 59 | 1009.6 |
| 20260902205551 | 88 | 197 | 1.0 | 4.0 | 0.00 | 0.08 | 0.08 | 60 | 1009.6 |
| 20260902205041 | 87 | 169 | 1.0 | 3.0 | 0.00 | 0.08 | 0.08 | 62 | 1009.5 |
| 20260902204523 | 87 | 153 | 0.0 | 5.0 | 0.00 | 0.08 | 0.08 | 62 | 1009.4 |
| 20260902204101 | 88 | 155 | 2.0 | 5.0 | 0.00 | 0.08 | 0.08 | 62 | 1009.6 |
| 20260902203519 | 87 | 202 | 1.0 | 4.0 | 0.00 | 0.08 | 0.08 | 62 | 1009.5 |
| 20260902203108 | 87 | 163 | 1.0 | 7.0 | 0.00 | 0.08 | 0.08 | 61 | 1009.5 |
| 20260902202524 | 88 | 150 | 3.0 | 7.0 | 0.00 | 0.08 | 0.08 | 59 | 1009.5 |
| 20260902202104 | 88 | 139 | 0.0 | 3.0 | 0.00 | 0.08 | 0.08 | 62 | 1009.6 |
| 20260902201542 | 88 | 137 | 1.0 | 5.0 | 0.00 | 0.08 | 0.08 | 59 | 1009.7 |
| 20260902201029 | 88 | 198 | 0.0 | 4.0 | 0.00 | 0.08 | 0.08 | 61 | 1009.8 |
| 20260902200511 | 88 | 196 | 1.0 | 3.0 | 0.00 | 0.08 | 0.08 | 62 | 1009.9 |
| 20260902200051 | 88 | 205 | 1.0 | 4.0 | 0.00 | 0.08 | 0.08 | 62 | 1009.9 |
| 20260902195548 | 87 | 205 | 1.0 | 4.0 | 0.00 | 0.08 | 0.08 | 61 | 1010.1 |
| 20260902195024 | 87 | 327 | 1.0 | 6.0 | 0.00 | 0.08 | 0.08 | 64 | 1010.1 |
| 20260902194502 | 87 | 310 | 1.0 | 6.0 | 0.00 | 0.08 | 0.08 | 60 | 1010.2 |
| 20260902194056 | 86 | 165 | 0.0 | 5.0 | 0.00 | 0.08 | 0.08 | 63 | 1010.3 |
| 20260902193537 | 86 | 165 | 1.0 | 8.0 | 0.00 | 0.08 | 0.08 | 62 | 1010.3 |
| 20260902193059 | 86 | 225 | 3.0 | 8.0 | 0.00 | 0.08 | 0.08 | 62 | 1010.4 |
| 20260902192528 | 86 | 162 | 0.0 | 4.0 | 0.00 | 0.08 | 0.08 | 67 | 1010.4 |
| 20260902192004 | 85 | 184 | 0.0 | 4.0 | 0.00 | 0.08 | 0.08 | 67 | 1010.4 |
| 20260902191539 | 85 | 183 | 0.0 | 4.0 | 0.00 | 0.08 | 0.08 | 68 | 1010.4 |
| 20260902191020 | 85 | 179 | 1.0 | 4.0 | 0.00 | 0.08 | 0.08 | 68 | 1010.4 |
| 20260902190554 | 84 | 308 | 2.0 | 5.0 | 0.00 | 0.08 | 0.08 | 64 | 1010.4 |
| 20260902190009 | 85 | 317 | 1.0 | 5.0 | 0.00 | 0.08 | 0.08 | 65 | 1010.4 |
| 20260902185544 | 85 | 289 | 1.0 | 5.0 | 0.00 | 0.08 | 0.08 | 66 | 1010.4 |
| 20260902185003 | 85 | 214 | 2.0 | 5.0 | 0.00 | 0.08 | 0.08 | 64 | 1010.4 |
| 20260902184523 | 85 | 169 | 1.0 | 4.0 | 0.00 | 0.08 | 0.08 | 67 | 1010.6 |
| 20260902184108 | 85 | 107 | 1.0 | 4.0 | 0.00 | 0.08 | 0.08 | 65 | 1010.6 |
| 20260902183517 | 85 | 171 | 1.0 | 4.0 | 0.00 | 0.08 | 0.08 | 67 | 1010.7 |
| 20260902183129 | 84 | 257 | 0.0 | 4.0 | 0.00 | 0.08 | 0.08 | 65 | 1010.6 |
| 20260902182534 | 84 | 164 | 1.0 | 5.0 | 0.00 | 0.08 | 0.08 | 69 | 1010.6 |
| 20260902182016 | 83 | 98 | 1.0 | 5.0 | 0.00 | 0.08 | 0.08 | 68 | 1010.6 |
| 20260902181502 | 83 | 122 | 1.0 | 4.0 | 0.00 | 0.08 | 0.08 | 67 | 1010.7 |
| 20260902181046 | 83 | 183 | 1.0 | 4.0 | 0.00 | 0.08 | 0.08 | 70 | 1010.7 |
| 20260902180607 | 83 | 178 | 0.0 | 4.0 | 0.00 | 0.08 | 0.08 | 69 | 1010.9 |
| 20260902180017 | 83 | 150 | 1.0 | 5.0 | 0.00 | 0.08 | 0.08 | 70 | 1011.0 |
| 20260902175543 | 83 | 147 | 1.0 | 5.0 | 0.00 | 0.08 | 0.08 | 71 | 1011.0 |
| 20260902175013 | 82 | 165 | 1.0 | 5.0 | 0.00 | 0.08 | 0.08 | 72 | 1011.0 |
| 20260902174533 | 82 | 92 | 0.0 | 4.0 | 0.00 | 0.08 | 0.08 | 77 | 1011.0 |
| 20260902174008 | 81 | 148 | 1.0 | 5.0 | 0.00 | 0.08 | 0.08 | 72 | 1011.2 |
| 20260902173529 | 81 | 165 | 1.0 | 4.0 | 0.00 | 0.08 | 0.08 | 73 | 1011.3 |
| 20260902173006 | 80 | 146 | 0.0 | 5.0 | 0.00 | 0.08 | 0.08 | 72 | 1011.4 |
| 20260902172534 | 80 | 174 | 2.0 | 4.0 | 0.00 | 0.08 | 0.08 | 74 | 1011.4 |
| 20260902172009 | 80 | 213 | 0.0 | 5.0 | 0.00 | 0.08 | 0.08 | 75 | 1011.8 |
| 20260902171558 | 80 | 279 | 2.0 | 5.0 | 0.00 | 0.08 | 0.08 | 73 | 1011.8 |
| 20260902171020 | 79 | 158 | 1.0 | 5.0 | 0.00 | 0.08 | 0.08 | 75 | 1011.9 |
| 20260902170555 | 79 | 164 | 0.0 | 3.0 | 0.00 | 0.08 | 0.08 | 77 | 1012.0 |
| 20260902170013 | 78 | 148 | 1.0 | 7.0 | 0.00 | 0.08 | 0.08 | 77 | 1012.1 |
| 20260902165558 | 78 | 150 | 2.0 | 7.0 | 0.00 | 0.08 | 0.08 | 74 | 1012.1 |
| 20260902165007 | 79 | 157 | 2.0 | 5.0 | 0.01 | 0.08 | 0.08 | 75 | 1012.1 |
| 20260902164527 | 78 | 177 | 1.0 | 4.0 | 0.01 | 0.08 | 0.08 | 76 | 1012.0 |
| 20260902164046 | 78 | 137 | 1.0 | 4.0 | 0.01 | 0.08 | 0.08 | 78 | 1011.8 |
| 20260902163609 | 77 | 116 | 0.0 | 4.0 | 0.01 | 0.08 | 0.08 | 79 | 1011.7 |
| 20260902163017 | 76 | 170 | 0.0 | 5.0 | 0.01 | 0.08 | 0.08 | 79 | 1011.8 |
| 20260902162536 | 76 | 161 | 0.0 | 5.0 | 0.01 | 0.08 | 0.08 | 80 | 1011.8 |
| 20260902162058 | 76 | 160 | 2.0 | 6.0 | 0.01 | 0.08 | 0.08 | 79 | 1011.8 |
| 20260902161514 | 76 | 155 | 3.0 | 5.0 | 0.01 | 0.08 | 0.08 | 78 | 1011.7 |
| 20260902161049 | 76 | 146 | 0.0 | 5.0 | 0.01 | 0.08 | 0.08 | 78 | 1011.8 |
| 20260902160516 | 76 | 165 | 3.0 | 7.0 | 0.01 | 0.08 | 0.08 | 76 | 1011.6 |
| 20260902160109 | 77 | 155 | 3.0 | 7.0 | 0.01 | 0.08 | 0.08 | 75 | 1011.6 |
| 20260902155541 | 77 | 183 | 2.0 | 4.0 | 0.01 | 0.08 | 0.08 | 77 | 1011.6 |
| 20260902155013 | 76 | 156 | 0.0 | 6.0 | 0.00 | 0.07 | 0.07 | 79 | 1011.5 |
| 20260902154559 | 76 | 161 | 2.0 | 6.0 | 0.00 | 0.07 | 0.07 | 78 | 1011.3 |
| 20260902154007 | 76 | 169 | 1.0 | 5.0 | 0.00 | 0.07 | 0.07 | 78 | 1011.3 |
| 20260902153538 | 75 | 169 | 0.0 | 5.0 | 0.00 | 0.07 | 0.07 | 80 | 1011.4 |
| 20260902153107 | 75 | 163 | 3.0 | 5.0 | 0.00 | 0.07 | 0.07 | 79 | 1011.4 |
| 20260902152516 | 75 | 163 | 1.0 | 5.0 | 0.00 | 0.07 | 0.07 | 79 | 1011.4 |
| 20260902152037 | 75 | 179 | 3.0 | 5.0 | 0.00 | 0.07 | 0.07 | 79 | 1011.3 |
| 20260902151557 | 75 | 192 | 1.0 | 4.0 | 0.00 | 0.07 | 0.07 | 80 | 1011.2 |
| 20260902151006 | 74 | 158 | 2.0 | 5.0 | 0.00 | 0.07 | 0.07 | 81 | 1011.2 |
| 20260902150527 | 74 | 189 | 1.0 | 3.0 | 0.00 | 0.07 | 0.07 | 82 | 1011.1 |
| 20260902150003 | 73 | 136 | 0.0 | 7.0 | 0.00 | 0.07 | 0.07 | 82 | 1011.3 |
| 20260902145521 | 73 | 117 | 2.0 | 7.0 | 0.00 | 0.07 | 0.07 | 80 | 1011.3 |
| 20260902145040 | 73 | 144 | 1.0 | 3.0 | 0.00 | 0.07 | 0.07 | 82 | 1011.3 |
| 20260902144609 | 73 | 179 | 0.0 | 6.0 | 0.00 | 0.07 | 0.07 | 82 | 1011.2 |
| 20260902144011 | 72 | 163 | 2.0 | 6.0 | 0.00 | 0.07 | 0.07 | 82 | 1011.2 |
| 20260902143555 | 72 | 200 | 1.0 | 4.0 | 0.00 | 0.07 | 0.07 | 82 | 1011.2 |
| 20260902143028 | 72 | 166 | 1.0 | 5.0 | 0.00 | 0.07 | 0.07 | 83 | 1011.4 |
| 20260902142549 | 72 | 165 | 0.0 | 5.0 | 0.00 | 0.07 | 0.07 | 84 | 1011.4 |
| 20260902142110 | 72 | 163 | 2.0 | 5.0 | 0.00 | 0.07 | 0.07 | 83 | 1011.5 |
| 20260902141533 | 71 | 177 | 1.0 | 3.0 | 0.00 | 0.07 | 0.07 | 85 | 1011.7 |
| 20260902141008 | 71 | 173 | 1.0 | 4.0 | 0.00 | 0.07 | 0.07 | 86 | 1011.6 |
| 20260902140545 | 70 | 197 | 1.0 | 4.0 | 0.00 | 0.07 | 0.07 | 86 | 1011.7 |
| 20260902140015 | 70 | 166 | 2.0 | 5.0 | 0.00 | 0.07 | 0.07 | 87 | 1011.5 |
| 20260902135530 | 69 | 140 | 1.0 | 5.0 | 0.00 | 0.07 | 0.07 | 86 | 1011.7 |
| 20260902135050 | 70 | 182 | 1.0 | 5.0 | 0.00 | 0.07 | 0.07 | 85 | 1011.7 |
| 20260902134525 | 70 | 221 | 1.0 | 5.0 | 0.00 | 0.07 | 0.07 | 86 | 1011.4 |
| 20260902134008 | 70 | 138 | 2.0 | 4.0 | 0.00 | 0.07 | 0.07 | 87 | 1011.5 |
| 20260902133543 | 69 | 173 | 1.0 | 5.0 | 0.00 | 0.07 | 0.07 | 87 | 1011.5 |
| 20260902133016 | 69 | 164 | 1.0 | 5.0 | 0.00 | 0.07 | 0.07 | 88 | 1011.6 |
| 20260902132558 | 68 | 165 | 0.0 | 3.0 | 0.00 | 0.07 | 0.07 | 89 | 1011.5 |
| 20260902132012 | 68 | 164 | 0.0 | 3.0 | 0.00 | 0.07 | 0.07 | 89 | 1011.4 |
| 20260902131605 | 68 | 158 | 1.0 | 3.0 | 0.00 | 0.07 | 0.07 | 88 | 1011.3 |
| 20260902131036 | 68 | 160 | 1.0 | 3.0 | 0.00 | 0.07 | 0.07 | 89 | 1011.5 |
| 20260902130605 | 68 | 126 | 0.0 | 2.0 | 0.00 | 0.07 | 0.07 | 90 | 1011.6 |
| 20260902130030 | 67 | 126 | 0.0 | 4.0 | 0.00 | 0.07 | 0.07 | 91 | 1011.5 |
| 20260902125559 | 67 | 126 | 0.0 | 4.0 | 0.00 | 0.07 | 0.07 | 93 | 1011.5 |
| 20260902125017 | 66 | 178 | 1.0 | 3.0 | 0.00 | 0.07 | 0.07 | 93 | 1011.5 |
| 20260902124545 | 66 | 179 | 0.0 | 3.0 | 0.00 | 0.07 | 0.07 | 94 | 1011.5 |
| 20260902124001 | 65 | 179 | 0.0 | 3.0 | 0.00 | 0.07 | 0.07 | 94 | 1011.4 |
| 20260902123539 | 65 | 184 | 0.0 | 3.0 | 0.00 | 0.07 | 0.07 | 95 | 1011.3 |
| 20260902123059 | 65 | 178 | 0.0 | 2.0 | 0.00 | 0.07 | 0.07 | 95 | 1011.3 |
| 20260902122511 | 65 | 173 | 0.0 | 3.0 | 0.00 | 0.07 | 0.07 | 95 | 1011.1 |
| 20260902122033 | 64 | 172 | 0.0 | 3.0 | 0.00 | 0.07 | 0.07 | 95 | 1011.0 |
| 20260902121551 | 64 | 167 | 0.0 | 2.0 | 0.00 | 0.07 | 0.07 | 95 | 1011.2 |
| 20260902121007 | 64 | 164 | 0.0 | 2.0 | 0.00 | 0.07 | 0.07 | 95 | 1011.2 |
| 20260902120529 | 64 | 164 | 0.0 | 1.0 | 0.00 | 0.07 | 0.07 | 95 | 1011.2 |
| 20260902120049 | 64 | 164 | 0.0 | 2.0 | 0.00 | 0.07 | 0.07 | 95 | 1011.3 |
| 20260902115524 | 64 | 163 | 0.0 | 2.0 | 0.00 | 0.07 | 0.07 | 95 | 1011.3 |
| 20260902115043 | 64 | 161 | 0.0 | 2.0 | 0.00 | 0.07 | 0.07 | 95 | 1011.4 |
| 20260902114527 | 64 | 161 | 0.0 | 2.0 | 0.00 | 0.07 | 0.07 | 95 | 1011.4 |
| 20260902114106 | 65 | 150 | 0.0 | 1.0 | 0.00 | 0.07 | 0.07 | 95 | 1011.4 |
| 20260902113538 | 65 | 150 | 0.0 | 5.0 | 0.00 | 0.07 | 0.07 | 95 | 1011.3 |
| 20260902113103 | 65 | 148 | 0.0 | 5.0 | 0.00 | 0.07 | 0.07 | 95 | 1011.4 |
| 20260902112534 | 65 | 165 | 0.0 | 6.0 | 0.00 | 0.07 | 0.07 | 95 | 1011.3 |
| 20260902112006 | 65 | 169 | 1.0 | 6.0 | 0.00 | 0.07 | 0.07 | 95 | 1011.5 |
| 20260902111540 | 65 | 173 | 0.0 | 2.0 | 0.00 | 0.07 | 0.07 | 95 | 1011.7 |
| 20260902111059 | 65 | 174 | 0.0 | 0.0 | 0.00 | 0.07 | 0.07 | 95 | 1012.1 |
| 20260902110508 | 65 | 174 | 0.0 | 0.0 | 0.00 | 0.07 | 0.07 | 95 | 1012.6 |
| 20260902110100 | 65 | 174 | 0.0 | 0.0 | 0.00 | 0.07 | 0.07 | 95 | 1012.4 |
| 20260902105609 | 65 | 174 | 0.0 | 2.0 | 0.00 | 0.07 | 0.07 | 95 | 1012.3 |
| 20260902105022 | 65 | 174 | 0.0 | 2.0 | 0.00 | 0.07 | 0.07 | 95 | 1012.1 |
| 20260902104543 | 65 | 174 | 0.0 | 7.0 | 0.00 | 0.07 | 0.07 | 95 | 1012.0 |
| 20260902104016 | 65 | 142 | 2.0 | 7.0 | 0.00 | 0.07 | 0.07 | 95 | 1011.5 |
| 20260902103602 | 65 | 265 | 0.0 | 3.0 | 0.00 | 0.07 | 0.07 | 95 | 1012.3 |
| 20260902103058 | 65 | 265 | 0.0 | 1.0 | 0.00 | 0.07 | 0.07 | 94 | 1012.3 |
| 20260902102522 | 65 | 265 | 0.0 | 0.0 | 0.00 | 0.07 | 0.07 | 94 | 1012.5 |
| 20260902102051 | 65 | 265 | 0.0 | 2.0 | 0.00 | 0.07 | 0.07 | 94 | 1012.5 |
| 20260902101513 | 65 | 264 | 0.0 | 2.0 | 0.00 | 0.07 | 0.07 | 94 | 1012.6 |
| 20260902101057 | 65 | 264 | 0.0 | 4.0 | 0.00 | 0.07 | 0.07 | 94 | 1012.4 |
| 20260902100546 | 65 | 263 | 1.0 | 4.0 | 0.00 | 0.07 | 0.07 | 94 | 1012.4 |
| 20260902100022 | 65 | 283 | 0.0 | 2.0 | 0.00 | 0.07 | 0.07 | 94 | 1012.2 |
| 20260902095506 | 65 | 283 | 0.0 | 3.0 | 0.00 | 0.07 | 0.07 | 94 | 1012.0 |
| 20260902095047 | 65 | 278 | 1.0 | 3.0 | 0.00 | 0.07 | 0.07 | 94 | 1012.0 |
| 20260902094518 | 65 | 246 | 0.0 | 2.0 | 0.00 | 0.07 | 0.07 | 94 | 1011.6 |
| 20260902094104 | 64 | 294 | 0.0 | 2.0 | 0.00 | 0.07 | 0.07 | 94 | 1011.5 |
| 20260902093552 | 65 | 253 | 0.0 | 2.0 | 0.00 | 0.07 | 0.07 | 93 | 1011.3 |
| 20260902093034 | 65 | 254 | 0.0 | 3.0 | 0.00 | 0.07 | 0.07 | 93 | 1011.0 |
| 20260902092504 | 65 | 257 | 0.0 | 3.0 | 0.00 | 0.07 | 0.07 | 93 | 1011.1 |
| 20260902092046 | 65 | 259 | 0.0 | 3.0 | 0.01 | 0.07 | 0.07 | 93 | 1011.0 |
| 20260902091542 | 65 | 212 | 1.0 | 5.0 | 0.01 | 0.07 | 0.07 | 93 | 1011.1 |
| 20260902091029 | 65 | 324 | 0.0 | 5.0 | 0.01 | 0.07 | 0.07 | 93 | 1011.1 |
| 20260902090555 | 65 | 177 | 1.0 | 4.0 | 0.01 | 0.07 | 0.07 | 93 | 1011.1 |
| 20260902090034 | 65 | 230 | 1.0 | 4.0 | 0.01 | 0.07 | 0.07 | 93 | 1011.2 |
| 20260902085511 | 65 | 185 | 0.0 | 4.0 | 0.01 | 0.07 | 0.07 | 92 | 1010.6 |
| 20260902085037 | 65 | 155 | 0.0 | 4.0 | 0.01 | 0.07 | 0.07 | 93 | 1010.6 |
| 20260902084526 | 65 | 160 | 1.0 | 5.0 | 0.02 | 0.07 | 0.07 | 93 | 1010.7 |
| 20260902084008 | 65 | 198 | 1.0 | 6.0 | 0.02 | 0.07 | 0.07 | 93 | 1010.4 |
| 20260902083528 | 65 | 192 | 1.0 | 6.0 | 0.02 | 0.07 | 0.07 | 92 | 1009.9 |
| 20260902083047 | 65 | 128 | 0.0 | 3.0 | 0.02 | 0.07 | 0.07 | 92 | 1009.9 |
| 20260902082507 | 65 | 150 | 0.0 | 2.0 | 0.02 | 0.07 | 0.07 | 92 | 1010.1 |
| 20260902082052 | 65 | 153 | 0.0 | 3.0 | 0.01 | 0.06 | 0.06 | 92 | 1010.1 |
| 20260902081529 | 65 | 136 | 0.0 | 5.0 | 0.01 | 0.06 | 0.06 | 92 | 1010.3 |
| 20260902081104 | 65 | 101 | 0.0 | 5.0 | 0.02 | 0.06 | 0.06 | 92 | 1010.5 |
| 20260902080537 | 65 | 169 | 0.0 | 7.0 | 0.02 | 0.06 | 0.06 | 92 | 1010.7 |
| 20260902080120 | 65 | 150 | 1.0 | 6.0 | 0.03 | 0.06 | 0.06 | 92 | 1010.7 |
| 20260902075544 | 65 | 181 | 2.0 | 5.0 | 0.03 | 0.06 | 0.06 | 92 | 1011.1 |
| 20260902075102 | 65 | 160 | 2.0 | 5.0 | 0.03 | 0.06 | 0.06 | 93 | 1011.1 |
| 20260902074555 | 66 | 152 | 0.0 | 2.0 | 0.02 | 0.05 | 0.05 | 93 | 1011.4 |
| 20260902074046 | 66 | 150 | 0.0 | 3.0 | 0.03 | 0.05 | 0.05 | 93 | 1011.6 |
| 20260902073520 | 66 | 151 | 1.0 | 5.0 | 0.03 | 0.05 | 0.05 | 94 | 1011.1 |
| 20260902073048 | 66 | 157 | 2.0 | 7.0 | 0.04 | 0.05 | 0.05 | 94 | 1010.9 |
| 20260902072514 | 66 | 175 | 1.0 | 7.0 | 0.04 | 0.05 | 0.05 | 93 | 1010.7 |
| 20260902072003 | 66 | 166 | 1.0 | 7.0 | 0.04 | 0.05 | 0.05 | 92 | 1010.9 |
| 20260902071538 | 66 | 172 | 3.0 | 7.0 | 0.04 | 0.05 | 0.05 | 92 | 1010.9 |
| 20260902071006 | 67 | 187 | 3.0 | 7.0 | 0.03 | 0.04 | 0.04 | 92 | 1011.3 |
| 20260902070525 | 67 | 186 | 2.0 | 5.0 | 0.03 | 0.04 | 0.04 | 91 | 1011.8 |
| 20260902065542 | 68 | 181 | 3.0 | 6.0 | 0.02 | 0.03 | 0.03 | 89 | 1012.4 |
| 20260902065030 | 68 | 198 | 1.0 | 4.0 | 0.02 | 0.03 | 0.03 | 89 | 1013.0 |
| 20260902064504 | 69 | 188 | 1.0 | 6.0 | 0.02 | 0.03 | 0.03 | 89 | 1013.5 |
| 20260902064047 | 69 | 273 | 1.0 | 8.0 | 0.01 | 0.02 | 0.02 | 89 | 1013.8 |
| 20260902063512 | 69 | 279 | 1.0 | 13.0 | 0.01 | 0.02 | 0.02 | 90 | 1014.2 |
| 20260902063107 | 70 | 222 | 3.0 | 13.0 | 0.00 | 0.01 | 0.01 | 90 | 1014.4 |
| 20260902062516 | 70 | 338 | 4.0 | 12.0 | 0.01 | 0.01 | 0.01 | 91 | 1014.7 |
| 20260902062037 | 70 | 294 | 4.0 | 8.0 | 0.01 | 0.01 | 0.01 | 92 | 1014.6 |
| 20260902061513 | 70 | 319 | 2.0 | 5.0 | 0.01 | 0.01 | 0.01 | 92 | 1013.5 |
| 20260902061033 | 70 | 217 | 0.0 | 0.0 | 0.01 | 0.01 | 0.01 | 93 | 1013.1 |
| 20260902060506 | 70 | 217 | 0.0 | 2.0 | 0.01 | 0.01 | 0.01 | 93 | 1012.7 |
| 20260902060052 | 69 | 217 | 0.0 | 2.0 | 0.01 | 0.01 | 0.01 | 93 | 1012.2 |
| 20260902055520 | 69 | 217 | 0.0 | 1.0 | 0.01 | 0.01 | 0.01 | 93 | 1011.8 |
| 20260902055054 | 69 | 217 | 0.0 | 1.0 | 0.01 | 0.01 | 0.01 | 94 | 1011.4 |
| 20260902054538 | 69 | 218 | 0.0 | 0.0 | 0.01 | 0.01 | 0.01 | 94 | 1010.6 |
| 20260902054057 | 69 | 218 | 0.0 | 0.0 | 0.01 | 0.01 | 0.01 | 94 | 1010.7 |
| 20260902053541 | 69 | 218 | 0.0 | 0.0 | 0.01 | 0.01 | 0.01 | 94 | 1010.8 |
| 20260902053013 | 69 | 218 | 0.0 | 2.0 | 0.01 | 0.01 | 0.01 | 94 | 1011.1 |
| 20260902052550 | 69 | 219 | 0.0 | 4.0 | 0.00 | 0.00 | 0.00 | 94 | 1011.5 |
| 20260902052109 | 69 | 219 | 0.0 | 4.0 | 0.00 | 0.00 | 0.00 | 94 | 1011.8 |
| 20260902051523 | 69 | 232 | 1.0 | 2.0 | 0.00 | 0.00 | 0.00 | 94 | 1011.9 |
| 20260902051104 | 69 | 298 | 0.0 | 0.0 | 0.00 | 0.00 | 0.00 | 94 | 1012.4 |
| 20260902050538 | 69 | 298 | 0.0 | 1.0 | 0.00 | 0.00 | 0.00 | 94 | 1012.8 |
| 20260902050100 | 69 | 298 | 0.0 | 1.0 | 0.00 | 0.00 | 0.00 | 95 | 1012.8 |
| 20260902045515 | 69 | 298 | 0.0 | 0.0 | 0.00 | 0.00 | 0.00 | 95 | 1012.8 |
| 20260902045054 | 68 | 298 | 0.0 | 0.0 | 0.00 | 0.00 | 0.00 | 95 | 1012.4 |
| 20260902044524 | 68 | 298 | 0.0 | 0.0 | 0.00 | 0.00 | 0.00 | 95 | 1012.1 |
| 20260902044104 | 68 | 298 | 0.0 | 0.0 | 0.00 | 0.00 | 0.00 | 95 | 1011.7 |
| 20260902043519 | 68 | 298 | 0.0 | 0.0 | 0.00 | 0.00 | 0.00 | 95 | 1011.7 |
| 20260902043058 | 68 | 298 | 0.0 | 0.0 | 0.00 | 0.00 | 0.00 | 94 | 1011.5 |
| 20260902042530 | 68 | 298 | 0.0 | 0.0 | 0.00 | 0.00 | 0.00 | 94 | 1011.4 |
| 20260902042008 | 68 | 298 | 0.0 | 0.0 | 0.00 | 0.00 | 0.00 | 94 | 1011.4 |
| 20260902041602 | 68 | 298 | 0.0 | 0.0 | 0.00 | 0.00 | 0.00 | 94 | 1011.4 |
| 20260902041011 | 68 | 298 | 0.0 | 0.0 | 0.00 | 0.00 | 0.00 | 94 | 1011.3 |
| 20260902040540 | 68 | 298 | 0.0 | 0.0 | 0.00 | 0.00 | 0.00 | 94 | 1011.3 |
| 20260902040016 | 68 | 298 | 0.0 | 0.0 | 0.00 | 0.00 | 0.00 | 94 | 1011.4 |
| 20260902035534 | 69 | 298 | 0.0 | 0.0 | 0.00 | 0.00 | 0.00 | 93 | 1011.4 |
| 20260902035053 | 69 | 298 | 0.0 | 0.0 | 0.00 | 0.00 | 0.00 | 94 | 1011.4 |
| 20260902034528 | 69 | 298 | 0.0 | 0.0 | 0.00 | 0.00 | 0.00 | 94 | 1011.3 |
| 20260902034047 | 69 | 298 | 0.0 | 1.0 | 0.00 | 0.00 | 0.00 | 94 | 1011.3 |
| 20260902033608 | 69 | 298 | 0.0 | 1.0 | 0.00 | 0.00 | 0.00 | 94 | 1011.6 |
| 20260902033055 | 69 | 299 | 0.0 | 0.0 | 0.00 | 0.00 | 0.00 | 94 | 1011.9 |
| 20260902032537 | 69 | 299 | 0.0 | 0.0 | 0.00 | 0.00 | 0.00 | 93 | 1012.2 |
| 20260902032053 | 69 | 299 | 0.0 | 0.0 | 0.00 | 0.00 | 0.00 | 93 | 1012.3 |
| 20260902031504 | 69 | 299 | 0.0 | 0.0 | 0.00 | 0.00 | 0.00 | 93 | 1012.3 |
| 20260902031048 | 69 | 299 | 0.0 | 0.0 | 0.00 | 0.00 | 0.00 | 93 | 1012.2 |